CAPE
1480 1974 2152 2165 2117 1855 1917 1997 1979 2035 2165 1881 1818 1800 1614 1560 1458 1318 1107 2523 1953 2162 1826 2249 2967 3053 2748 2419 2779 2857 2493 1733 2448 2202 1718 1564 1399 1406 1722 1614 1422 928 1098
2168 2237 2440 2172 1891 1899 1803 2127 2716 2283 1861 1152 643 874 1592 1786 1495 1477 1410 1452 2517 2231 2184 1762 2811 3359 3285 2815 2575 2843 2808 2405 2217 2436 2460 2334 2023 1685 1865 1921 1791 1741 1677
2669 3030 2510 2304 1664 2211 2861 1984 1816 1183 928 494 383 230 626 1051 1159 1511 1754 1636 1567 2374 2106 1689 2060 2629 3006 3133 2929 2746 2696 2758 2527 2190 2208 2183 2161 1991 1829 1922 2046 1972 1845
3067 2996 2103 1551 1840 1911 1458 1361 1175 1103 774 712 652 363 175 142 218 698 952 1029 1166 1324 1855 1784 1700 1939 2276 2788 3032 2875 2570 2566 2337 2284 2110 2046 1913 2124 2111 1972 1698 1634 1810
2494 2997 1861 1589 2184 1112 1122 1480 1368 1339 1166 742 312 193 99 15 0 0 36 557 872 894 1000 875 1628 1740 1467 1483 2411 2800 2835 2750 2591 2366 2369 2166 2010 1801 1839 1832 1595 1433 1408
2433 2734 1897 2287 2457 1264 1261 2037 2408 1662 1196 573 322 67 2 0 20 34 96 34 12 404 416 955 1326 1368 2163 1753 1999 2303 2645 2890 2616 2662 2593 2456 2180 1937 1770 1691 1555 1447 1443
2485 2858 2348 1918 2388 2354 3132 2948 1998 806 535 590 155 0 0 0 43 6 0 0 0 7 206 114 581 693 638 1596 1546 1645 1734 2225 2552 2514 2819 2533 2354 2072 1903 1782 1579 1518 1549
2539 2748 3090 2783 2691 2812 2767 2660 1841 484 0 112 106 2 0 0 80 0 31 31 151 116 72 49 99 75 102 186 533 1096 1900 1873 1836 2235 2453 2533 2229 2045 1837 1734 1608 1533 1478
2792 3092 3469 3486 3498 3450 2087 1710 684 402 13 0 85 109 55 0 79 16 3 17 8 25 23 7 0 0 5 35 156 264 1386 1598 1834 1722 2089 2286 2044 1878 1808 1654 1494 1430 1392
2781 3176 3659 3533 3347 1900 1523 978 267 310 273 0 34 45 154 307 193 169 7 2 0 1 0 0 0 0 0 0 0 39 232 219 829 1071 1371 1742 1880 2084 1844 1747 1636 1456 1340
3166 2852 2929 2466 1973 1689 1319 657 300 209 44 337 78 85 82 49 34 26 0 0 0 0 0 0 0 0 0 0 0 0 165 470 696 853 944 1117 1599 2026 2323 1953 1951 1884 1727
2532 2624 2312 2109 1763 1132 667 230 185 310 518 530 393 144 26 10 0 1 5 0 0 0 0 0 0 0 0 0 0 3 31 98 78 76 346 659 913 1567 2042 2442 2321 2244 2144
2125 3000 2435 1459 1163 636 455 257 333 447 476 448 360 12 0 0 0 0 3 0 0 0 0 0 1 0 0 0 0 28 8 6 5 1 3 19 265 663 945 1543 2202 2250 2349
2815 1982 1372 679 574 442 336 280 288 347 417 183 16 17 0 0 0 0 0 3 14 12 0 76 1 7 4 5 18 42 9 10 5 2 0 0 41 79 84 524 1052 1726 1934
2333 1678 481 683 687 430 259 265 376 477 224 22 0 0 0 0 0 0 0 12 32 36 57 9 1 12 5 16 59 59 73 52 44 21 10 1 0 0 0 70 252 542 911
2471 1391 536 539 451 349 223 482 304 268 6 0 0 0 0 0 0 0 2 17 45 47 50 18 18 48 96 65 64 55 27 58 30 31 11 0 12 0 0 0 0 46 117
2031 1204 574 602 604 428 227 519 512 0 0 0 0 0 0 0 0 0 23 43 58 35 33 7 26 39 31 0 0 1 0 0 41 8 5 2 0 0 0 0 0 0 30
1839 1142 742 714 751 242 349 556 323 0 0 0 0 0 0 0 0 16 46 153 116 148 47 116 69 35 0 5 3 0 1 0 0 0 20 0 13 0 0 0 0 0 0
1592 1136 1076 841 549 414 528 612 92 0 12 1 0 0 0 0 2 30 144 40 44 105 40 86 18 0 0 5 0 2 17 3 5 6 1 0 0 5 0 0 0 0 0
1867 1358 1008 658 496 476 625 461 14 17 35 7 4 2 0 0 6 95 38 59 100 84 46 20 0 1 1 2 8 2 6 10 0 3 6 2 8 4 0 0 0 0 0
1385 1071 924 610 480 569 343 198 10 34 65 43 45 13 0 0 3 2 7 29 76 38 22 0 0 0 0 0 5 0 1 1 3 1 0 0 43 24 5 0 0 0 0
1308 1114 803 436 532 244 0 0 0 61 80 75 70 0 0 0 18 7 0 0 1 29 48 4 0 0 2 0 6 8 2 3 0 0 0 0 59 47 23 7 0 0 0
1598 1190 529 499 409 427 0 0 0 34 84 123 45 0 0 0 20 25 0 0 22 15 0 5 2 0 0 1 15 29 0 0 0 0 93 0 14 3 40 12 2 0 0
1192 649 563 511 556 571 0 0 0 19 111 74 0 0 0 15 18 0 0 0 80 62 3 0 13 0 8 13 10 1 10 3 8 4 72 21 13 128 69 22 14 0 0
742 573 487 646 813 532 0 0 0 34 81 0 0 0 2 14 0 0 0 4 16 32 0 0 1 0 17 26 43 36 8 1 14 27 240 7 269 766 329 188 148 0 0
840 587 598 735 453 354 26 0 0 0 0 0 0 0 0 0 0 0 0 1 0 2 22 11 0 2 2 5 0 19 4 4 1 66 79 253 1041 1217 1100 1271 1228 486 225
CIN
-8 -0 -0 -0 -0 -0 -0 -0 -0 -0 -0 -0 -0 -0 -0 -0 -0 -0 -0 -39 -50 -43 -41 -23 -10 -9 -12 -13 -2 -0 -0 -9 -0 -0 -0 -0 -0 -0 -0 -0 -0 -0 -0
-0 -0 -0 -0 -0 -0 -0 -0 -0 -0 -0 -0 -3 -0 -0 -0 -0 -0 -0 -0 -49 -52 -39 -40 -12 -3 -3 -5 -11 -3 -0 -1 -0 -0 -0 -0 -0 -0 -0 -0 -0 -0 -0
-1 -3 -0 -0 -0 -0 -0 -0 -0 -0 -0 -4 -18 -43 -10 -0 -0 -0 -0 -0 -1 -70 -52 -47 -34 -18 -9 -4 -2 -7 -9 -4 -2 -3 -0 -0 -0 -0 -0 -0 -0 -0 -0
-0 -0 -0 -0 -0 -0 -0 -0 -0 -0 -4 -6 -3 -19 -63 -96 -66 -7 -0 -0 -0 -0 -29 -53 -43 -25 -15 -2 -1 -2 -8 -13 -20 -16 -9 -1 -4 -0 -0 -0 -0 -0 -0
-0 -0 -0 -0 -0 -2 -3 -0 -0 -0 -5 -14 -38 -58 -102 -172 -0 -0 -176 -10 -0 -0 -0 -3 -24 -19 -25 -25 -7 -3 -2 -3 -11 -22 -19 -15 -12 -11 -2 -0 -0 -0 -0
-0 -0 -0 -0 -1 -0 -0 -0 -0 -0 -9 -36 -92 -116 -25 -0 -171 -125 -73 -40 -43 -10 -1 -0 -0 -2 -26 -22 -13 -7 -0 -0 -3 -5 -13 -18 -20 -24 -19 -10 -15 -6 -0
-0 -0 -0 -0 -0 -0 -0 -0 -0 -22 -54 -64 -138 -0 -0 -1 -139 -143 -0 -0 -0 -50 -24 -56 -0 -0 -0 -26 -27 -27 -17 -4 -1 -5 -2 -8 -16 -24 -28 -22 -23 -28 -10
-0 -0 -0 -0 -0 -0 -0 -0 -4 -79 -0 -104 -144 -42 -0 -0 -32 -0 -63 -90 -36 -48 -61 -109 -77 -86 -82 -21 -1 -14 -8 -6 -10 -1 -0 -3 -10 -19 -36 -39 -36 -41 -37
-3 -0 -0 -0 -0 -0 -0 -21 -79 -104 -44 -0 -146 -127 -120 -0 -121 -69 -0 -20 -2 -70 -49 -0 -0 -0 -73 -108 -49 -14 -12 -19 -7 -6 -1 -0 -9 -21 -34 -37 -49 -61 -57
-4 -0 -0 -0 -4 -36 -60 -47 -109 -128 -125 -0 -100 -96 -78 -44 -67 -106 -59 -0 -0 -0 -0 -0 -0 -0 -0 -0 -0 -123 -34 -64 -21 -7 -3 -2 -4 -6 -25 -35 -40 -57 -69
-1 -6 -12 -40 -65 -46 -66 -118 -142 -135 -132 -61 -76 -70 -65 -38 -30 -24 -0 -0 -0 -0 -0 -0 -0 -0 -0 -0 -0 -0 -67 -20 -16 -7 -1 -0 -0 -0 -1 -17 -24 -33 -46
-5 -17 -30 -47 -62 -78 -97 -121 -136 -96 -52 -30 -44 -71 -88 -102 -0 -0 -0 -0 -0 -0 -0 -0 -0 -0 -0 -0 -0 -37 -153 -114 -108 -119 -32 -4 -1 -0 -0 -0 -2 -10 -28
-38 -15 -111 -93 -18 -118 -105 -102 -77 -45 -31 -21 -31 -95 -0 -0 -0 -0 -0 -0 -0 -0 -0 -0 -0 -0 -0 -0 -0 -324 -2 -9 -6 -4 -70 -67 -56 -6 -4 -1 -0 -1 -10
-27 -161 -86 -193 -68 -50 -65 -74 -30 -33 -15 -30 -68 -82 -61 -0 -0 -0 -0 -0 -0 -0 -0 -39 -0 -0 -0 -0 -0 -7 -1 -7 -11 -22 -0 -0 -167 -139 -140 -31 -18 -0 -4
-121 -136 -259 -262 -172 -70 -103 -45 -7 -1 -16 -98 -0 -0 -0 -0 -0 -0 -0 -0 -0 -0 -0 -0 -0 -0 -0 -0 -0 -0 -0 -1 -4 -11 -17 -2 -0 -0 -0 -104 -71 -53 -49
-90 -78 -241 -233 -207 -148 -127 -6 -1 -0 -17 -0 -0 -0 -0 -0 -0 -0 -0 -0 -0 -0 -0 -0 -0 -0 -125 -0 -0 -0 -1 -0 -3 -5 -11 -1 -16 -0 -0 -0 -0 -155 -98
-56 -80 -190 -177 -138 -124 -94 -1 -0 -0 -0 -0 -0 -0 -0 -0 -0 -0 -0 -0 -0 -0 -0 -0 -0 -0 -0 -0 -0 -117 -0 -0 -0 -1 -3 -4 -0 -0 -0 -0 -0 -0 -44
-60 -53 -154 -149 -106 -138 -44 -0 -2 -0 -0 -0 -0 -0 -0 -0 -0 -0 -0 -0 -0 -3 -10 -99 -5 -0 -0 -0 -0 -4 -4 -0 -0 -0 -7 -0 -23 -1 -0 -0 -0 -0 -0
-143 -117 -119 -106 -97 -64 -5 -0 -39 -0 -47 -24 -0 -0 -0 -0 -0 -0 -0 -3 -0 -10 -0 -0 -0 -0 -0 -0 -0 -3 -7 -19 -14 -1 -0 -0 -0 -14 -0 -0 -0 -0 -0
-64 -92 -111 -96 -72 -23 -1 -1 -66 -49 -22 -55 -44 -48 -0 -0 -0 -1 -0 -20 -15 -13 -0 -0 -0 -0 -0 -1 -0 -3 -3 -14 -2 -2 -0 -0 -4 -9 -0 -0 -0 -0 -0
-53 -90 -74 -75 -43 -12 -7 -17 -52 -19 -24 -12 -10 -9 -0 -0 -10 -0 -0 -2 -32 -0 -0 -0 -0 -0 -0 -0 -1 -0 -1 -0 -8 -0 -0 -0 -0 -0 -0 -0 -0 -0 -0
-90 -64 -56 -62 -19 -17 -0 -0 -0 -30 -1 -1 -0 -0 -0 -0 -4 -16 -7 -0 -2 -0 -0 -0 -0 -0 -0 -0 -0 -0 -3 -0 -0 -0 -0 -0 -0 -0 -0 -0 -0 -0 -0
-32 -40 -77 -33 -9 -0 -14 -0 -0 -38 -1 -0 -7 -0 -0 -0 -0 -33 -0 -0 -24 -57 -0 -23 -0 -0 -0 -0 -0 -0 -0 -0 -0 -0 -1 -0 -0 -0 -0 -0 -0 -0 -0
-52 -45 -45 -13 -0 -0 -0 -0 -0 -70 -6 -11 -0 -0 -0 -0 -5 -0 -0 -0 -37 -46 -10 -0 -0 -0 -0 -0 -4 -0 -5 -0 -0 -0 -0 -0 -3 -79 -200 -2 -3 -0 -0
-60 -13 -33 -2 -0 -1 -0 -0 -0 -27 -3 -0 -0 -0 -0 -0 -0 -0 -0 -0 -106 -68 -0 -0 -0 -0 -1 -0 -1 -0 -0 -0 -0 -0 -5 -10 -21 -0 -7 -12 -51 -0 -0
-0 -4 -11 -0 -1 -0 -26 -0 -0 -0 -0 -0 -0 -0 -0 -0 -0 -0 -0 -0 -0 -14 -61 -0 -0 -0 -1 -1 -0 -0 -0 -0 -0 -9 -0 -0 -0 -0 -0 -0 -0 -17 -39
Wind_Speed
12 14 10 13 10 9 10 9 7 9 7 9 7 7 7 7 15 13 7 21 17 14 11 11 13 11 12 12 12 14 15 13 10 8 9 10 10 11 13 13 12 12 13
12 13 15 16 15 12 10 9 7 9 8 8 7 6 5 5 7 5 6 2 18 15 12 13 15 14 15 15 13 13 15 14 13 12 10 10 11 11 9 10 11 12 12
11 11 12 12 12 12 14 14 12 12 12 10 7 6 7 7 7 4 5 5 9 26 22 22 13 14 11 14 15 14 14 16 13 13 12 11 11 11 11 8 7 9 12
12 11 11 10 8 12 9 9 7 7 7 7 7 9 9 10 8 8 9 8 9 10 23 25 23 11 10 9 14 16 19 20 16 14 13 12 11 10 10 10 8 7 9
10 10 9 7 8 8 7 7 8 7 6 4 5 7 nan nan nan nan nan 11 12 14 15 19 21 13 7 11 15 16 18 20 18 17 12 12 11 10 9 9 9 8 8
7 6 5 9 7 9 9 9 8 7 8 11 9 nan nan nan nan nan nan nan nan 15 14 17 15 14 18 14 16 18 18 18 18 16 16 10 10 11 11 11 10 8 7
5 5 8 12 11 10 5 8 10 10 13 16 13 nan nan nan nan nan nan nan nan nan 18 17 17 21 19 21 19 13 12 13 20 16 13 11 11 13 13 13 10 9 8
6 10 10 10 11 7 10 9 12 12 nan 19 16 nan nan nan nan nan nan nan 25 20 nan nan nan nan 20 20 18 24 19 14 12 21 19 15 10 10 12 8 10 12 9
12 12 12 11 10 9 8 12 15 17 nan nan nan 24 nan nan nan nan nan nan nan nan nan nan nan nan nan nan 22 18 18 18 14 14 22 21 18 13 11 7 11 13 12
17 18 18 17 16 16 16 16 18 17 21 nan nan nan 28 23 19 16 nan nan nan nan nan nan nan nan nan nan nan nan 21 20 18 13 16 25 27 20 14 13 13 13 14
18 22 25 26 25 22 22 20 23 25 nan 27 nan nan nan nan nan nan nan nan nan nan nan nan nan nan nan nan nan nan 30 30 27 22 17 15 20 24 24 18 16 15 14
24 40 32 26 28 27 18 23 27 32 33 35 35 34 nan nan nan nan nan nan nan nan nan nan nan nan nan nan nan nan nan nan nan nan 22 21 18 17 18 21 21 19 16
28 38 33 20 10 13 20 24 31 34 37 37 36 nan nan nan nan nan nan nan nan nan nan nan nan nan nan nan nan nan nan nan nan nan nan nan 23 20 22 17 21 22 20
47 22 33 24 22 18 22 26 29 33 40 39 nan nan nan nan nan nan nan nan nan nan nan nan nan nan nan nan nan nan nan nan nan nan nan nan nan nan nan 21 19 24 28
27 21 36 35 29 27 29 29 33 33 40 nan nan nan nan nan nan nan nan nan nan nan nan nan nan nan nan nan nan nan nan nan nan nan nan nan nan nan nan nan 24 25 30
32 31 30 31 30 31 34 36 35 40 nan nan nan nan nan nan nan nan nan nan nan nan nan nan nan nan nan nan nan nan nan nan nan nan nan nan nan nan nan nan nan nan 25
34 37 35 34 35 38 36 37 34 nan nan nan nan nan nan nan nan nan nan nan nan nan nan nan nan nan nan nan nan nan nan nan nan nan nan nan nan nan nan nan nan nan nan
39 38 40 41 40 40 39 40 39 nan nan nan nan nan nan nan nan nan nan 42 41 40 nan 27 nan nan nan nan nan nan nan nan nan nan nan nan nan nan nan nan nan nan nan
41 40 43 43 41 41 41 42 nan nan nan nan nan nan nan nan nan nan 45 nan nan 42 nan nan nan nan nan nan nan nan nan nan nan nan nan nan nan nan nan nan nan nan nan
40 45 47 44 42 42 44 42 nan nan nan nan nan nan nan nan nan nan nan nan 41 nan nan nan nan nan nan nan nan nan nan nan nan nan nan nan nan nan nan nan nan nan nan
41 46 49 46 44 46 46 46 nan nan nan nan nan nan nan nan nan nan nan nan nan nan nan nan nan nan nan nan nan nan nan nan nan nan nan nan nan nan nan nan nan nan nan
47 49 51 49 48 46 nan nan nan nan nan nan nan nan nan nan nan nan nan nan nan nan nan nan nan nan nan nan nan nan nan nan nan nan nan nan nan nan nan nan nan nan nan
50 52 51 50 49 46 nan nan nan nan nan 40 nan nan nan nan nan nan nan nan nan nan nan nan nan nan nan nan nan nan nan nan nan nan nan nan nan nan nan nan nan nan nan
54 51 50 50 47 48 nan nan nan nan 43 nan nan nan nan nan nan nan nan nan nan nan nan nan nan nan nan nan nan nan nan nan nan nan nan nan nan 31 nan nan nan nan nan
59 52 47 47 49 50 nan nan nan nan nan nan nan nan nan nan nan nan nan nan nan nan nan nan nan nan nan nan nan nan nan nan nan nan 11 nan 24 28 37 40 47 nan nan
50 49 47 45 50 51 nan nan nan nan nan nan nan nan nan nan nan nan nan nan nan nan nan nan nan nan nan nan nan nan nan nan nan nan nan 18 18 21 33 44 53 47 45
Wind_Direction
80 71 69 63 52 36 7 10 25 21 29 28 42 64 54 36 53 39 3 318 313 304 299 272 273 285 282 287 293 294 299 300 300 315 329 334 337 351 2 8 21 30 36
71 69 55 48 40 31 27 33 12 26 23 30 29 20 44 30 21 38 42 10 334 338 333 303 276 278 276 280 276 283 286 289 294 300 306 310 322 333 354 9 18 21 25
68 65 50 43 32 24 31 31 32 20 25 22 31 37 33 25 36 22 359 310 312 337 333 4 328 267 271 274 271 271 274 279 284 294 297 304 312 327 337 358 26 22 15
51 39 29 25 360 18 19 31 39 31 33 21 4 10 359 2 357 1 355 319 312 313 324 340 1 333 259 268 264 261 268 266 273 269 287 296 306 313 330 337 349 11 5
41 31 23 347 350 17 16 16 9 13 22 9 342 335 nan nan nan nan nan 316 322 316 303 301 323 335 330 280 276 278 277 281 282 280 268 293 299 307 318 327 333 349 5
20 12 347 328 5 9 1 328 348 348 351 325 314 nan nan nan nan nan nan nan nan 295 298 283 287 295 321 300 292 267 265 269 276 296 231 274 296 300 312 317 318 333 357
16 337 347 340 348 359 321 332 336 337 330 310 314 nan nan nan nan nan nan nan nan nan 281 275 282 273 273 303 311 311 284 273 276 249 237 232 281 297 311 288 302 313 331
353 342 335 328 319 324 330 321 312 319 nan 300 306 nan nan nan nan nan nan nan 286 281 nan nan nan nan 270 268 261 269 280 274 263 240 229 229 255 279 312 258 312 303 310
339 334 331 321 312 320 309 316 309 313 nan nan nan 309 nan nan nan nan nan nan nan nan nan nan nan nan nan nan 256 261 285 288 277 257 234 226 234 260 277 293 305 303 298
330 325 324 317 307 302 305 316 309 313 314 nan nan nan 306 302 291 277 nan nan nan nan nan nan nan nan nan nan nan nan 250 254 257 252 237 232 231 235 256 268 283 291 294
317 320 315 310 306 309 304 320 321 318 nan 317 nan nan nan nan nan nan nan nan nan nan nan nan nan nan nan nan nan nan 257 259 255 249 241 234 231 233 239 256 269 277 281
314 334 312 302 309 305 335 326 322 327 324 323 322 321 nan nan nan nan nan nan nan nan nan nan nan nan nan nan nan nan nan nan nan nan 246 239 231 229 237 244 248 259 268
322 332 2 325 319 314 318 325 327 326 324 320 318 nan nan nan nan nan nan nan nan nan nan nan nan nan nan nan nan nan nan nan nan nan nan nan 238 237 239 247 241 237 249
338 9 14 359 332 333 328 328 329 326 324 321 nan nan nan nan nan nan nan nan nan nan nan nan nan nan nan nan nan nan nan nan nan nan nan nan nan nan nan 241 243 234 233
352 16 339 343 335 333 332 324 335 324 326 nan nan nan nan nan nan nan nan nan nan nan nan nan nan nan nan nan nan nan nan nan nan nan nan nan nan nan nan nan 243 246 241
353 339 337 327 329 330 329 333 334 327 nan nan nan nan nan nan nan nan nan nan nan nan nan nan nan nan nan nan nan nan nan nan nan nan nan nan nan nan nan nan nan nan 240
344 342 344 338 336 335 336 333 328 nan nan nan nan nan nan nan nan nan nan nan nan nan nan nan nan nan nan nan nan nan nan nan nan nan nan nan nan nan nan nan nan nan nan
330 344 342 342 339 335 334 330 332 nan nan nan nan nan nan nan nan nan nan 311 314 315 nan 311 nan nan nan nan nan nan nan nan nan nan nan nan nan nan nan nan nan nan nan
336 338 339 341 335 333 330 330 nan nan nan nan nan nan nan nan nan nan 311 nan nan 312 nan nan nan nan nan nan nan nan nan nan nan nan nan nan nan nan nan nan nan nan nan
332 332 333 336 333 330 329 332 nan nan nan nan nan nan nan nan nan nan nan nan 313 nan nan nan nan nan nan nan nan nan nan nan nan nan nan nan nan nan nan nan nan nan nan
326 328 331 330 331 330 331 330 nan nan nan nan nan nan nan nan nan nan nan nan nan nan nan nan nan nan nan nan nan nan nan nan nan nan nan nan nan nan nan nan nan nan nan
329 329 326 328 330 329 nan nan nan nan nan nan nan nan nan nan nan nan nan nan nan nan nan nan nan nan nan nan nan nan nan nan nan nan nan nan nan nan nan nan nan nan nan
329 327 326 326 325 326 nan nan nan nan nan 322 nan nan nan nan nan nan nan nan nan nan nan nan nan nan nan nan nan nan nan nan nan nan nan nan nan nan nan nan nan nan nan
324 321 321 322 323 320 nan nan nan nan 325 nan nan nan nan nan nan nan nan nan nan nan nan nan nan nan nan nan nan nan nan nan nan nan nan nan nan 218 nan nan nan nan nan
317 317 317 319 321 321 nan nan nan nan nan nan nan nan nan nan nan nan nan nan nan nan nan nan nan nan nan nan nan nan nan nan nan nan 230 nan 206 220 221 221 238 nan nan
313 313 316 320 318 318 nan nan nan nan nan nan nan nan nan nan nan nan nan nan nan nan nan nan nan nan nan nan nan nan nan nan nan nan nan 198 194 216 225 221 231 240 237